SCOUT A DEB, 3591

Orbit data source: Space-Track

SCOUT A DEB, 3591 is space debris in LEO originally from a launch on Thu, 19 May 1966 UTC launched from the Air Force Western Test Range (AFWTR). Debris objects in space refer to the collection of defunct objects orbiting the Earth. Examples of debris include non-operational satellites, rocket bodies, and fragments generated from explosions, collisions, or faulty payload assembly.

Loading next visibility...
Identifier
3591, 1966-041E
Orbit
LEO
Last TLE update
1 day ago
Origin
Manufacturer
Unknown
Mission
Spacecraft
Bus & Motor
Unknown
Mass
Unknown
Launch date (UTC)
1966-05-19 (59 years ago)
Launch vehicle
Unknown
Launch site
Air Force Western Test Range (AFWTR)
Object type
Payload
Rocket body
Debris
Shape & HBR
Unknown
Radar Cross Section
Small (<0.1 m²)

Expand to show TLE details & history

TLE from 1 day ago
0 SCOUT A DEB
1 03591U 66041E   25181.72254152  .00000015  00000-0  26166-5 0  9992
2 03591  90.2178  74.1594 0087465 160.3818 200.0764 14.03873436 18078
Epoch: 2025-06-30T17:20Z
TLE epoch observation values (Epoch: 2025-06-30T17:20:27.587Z)
Latitude
-0.00001°
Longitude
-104.98381°
Altitude
943.152 km
Speed
7.35 km/s
True Right ascension
04h 56m 38s
True Declination
0° 00' 00"
Sunlit
Object was in daylight at epoch
Visualization orbit readout
Latitude
78.20173°
Longitude
76.07794°
Altitude
857.198 km
Speed
7.449 km/s
Apparent Right ascension
17h 20m 18s
Apparent Declination
25° 07' 30"
Sunlit
Object is in daylight
Visualization observer readout
Local Sidereal Time
05:26:10
Azimuth
1.467° NNE
Elevation
-24.944°
Doppler factor
1
Orbital elements
Apogee altitude
940.845 km
Perigee altitude
813.924 km
Semi-major axis
7,255.521 km
Eccentricity
0.00875
Inclination
90.2178°
RAAN
74.1594°
Arg. of periapsis
160.3818°
True anomaly
Unknown
Mean anomaly
200.0764°
Eccentric anomaly
Unknown
Mean motion
3.51188 °/min
Orbital period
102.51 mins
BSTAR
0.0000026166
Loading maneuver chart data...
Loading SW <> Apogee altitude chart data...
Loading historical data...
Loading historical data...
Loading historical data...
Loading historical data...
Loading historical data...
Loading historical data...
Loading historical data...

SCOUT A DEB Visibility forecast

Observer location: undefined°, undefined°

Span
Click to sort rows by Start time (UTC) header in descending order
Start Az.
Max El. time (UTC)
Max El. Az.
Max El.
End time (UTC)
End Az.
7 mins2025-07-02 04:09:31.580Z36.44° NE2025-07-02 04:12:31.580Z75.211° E21.703°2025-07-02 04:16:31.580Z130.417° SE
7 mins2025-07-02 05:52:31.580Z334.152° NNW2025-07-02 05:55:31.580Z278.792° WNW31.915°2025-07-02 05:59:31.580Z217.392° SW
4 mins2025-07-02 15:42:31.580Z90.225° ESE2025-07-02 15:44:31.580Z66.772° ENE14.961°2025-07-02 15:46:31.580Z44.759° NE
9 mins2025-07-02 17:21:31.580Z187.548° SSW2025-07-02 17:25:31.580Z248.357° W43.044°2025-07-02 17:30:31.580Z351.018° N
|